Regional Weather Roundup
Issued by NWS

Home | Current Version | Previous Version | Graphics & Text | Print | Product List | Glossary Off
Versions: 1 2 3 4 5 6 7 8 9 10 11 12 13 14 15 16 17 18 19 20 21 22 23 24 25 26 27 28 29 30 31 32 33 34 35 36 37 38 39 40 41 42 43 44 45 46 47 48 49 50

000
ASUS43 KIND 190209
RWRIN

WEATHER ROUNDUP FOR INDIANA
NATIONAL WEATHER SERVICE INDIANAPOLIS IN
900 PM EST THU JAN 18 2018

NOTE: "FAIR" INDICATES FEW OR NO CLOUDS BELOW 12,000 FEET WITH NO
SIGNIFICANT WEATHER AND/OR OBSTRUCTIONS TO VISIBILITY.

* - STATION DOES NOT REPORT WEATHER SUCH AS PRECIPITATION OR FOG.

+ - STATION NOT QUALITY CONTROLLED BY THE NATIONAL WEATHER SERVICE.
    USE DATA WITH CAUTION...ESPECIALLY DEWPOINT AND RELATIVE
    HUMIDITY OBSERVATIONS.

INZ001>003-010>013-019-020-190300-
NORTHWEST INDIANA

CITY           SKY/WX    TMP DP  RH WIND       PRES   REMARKS
GARY /AIRPORT/ CLEAR     30  21  69 SW12G26   30.03F WCI  21
KNOX *+        FAIR      27  18  69 SW14      30.07F WCI  15
LA PORTE +     FAIR      25  18  73 SW15G21   30.05F WCI  13
MICHIGAN CITY+ FAIR      28  19  69 SW14G21   30.03F WCI  17
MONTICELLO +   FAIR      25  14  63 SW13      30.10F WCI  14
RENSSELAER +   FAIR      27  16  63 S15       30.09S WCI  15
VALPARAISO     FAIR      26  18  71 SW14      30.04F WCI  14

$$

LMZ046-743>745-190300-
SOUTHERN LAKE MICHIGAN

STATION/POSITION TIME  TEMP    WIND        PRES    WAVE
                       AIR SEA DIR/SP/G            HT
                 (UTC) (F)     (DEG/KT/KT) (MB)    (FT)
BURNS HARBOR     0140   29     200/ 16/ 21 1017.3F
MICHIGAN CITY    0140   29     190/ 19/ 22   N/A

$$

INZ004-005-014>016-021>024-190300-
NORTH CENTRAL INDIANA

CITY           SKY/WX    TMP DP  RH WIND       PRES   REMARKS
ELKHART        FAIR      27  16  63 SW12G17   30.04F WCI  16
GOSHEN         FAIR      24  14  65 SW17G25   30.05F WCI  11
LOGANSPORT +   FAIR      25  16  68 SW15G21   30.12S WCI  12
PERU/GRISSOM   FAIR      24  16  71 SW17      30.10S WCI  10
ROCHESTER +    FAIR      27  18  69 SW8       30.09F WCI  18
SOUTH BEND     FAIR      24  16  71 SW18G24   30.03F WCI  10
WARSAW +       FAIR      27  14  59 SW8       30.07S WCI  18

$$

INZ006>009-017-018-025>027-190300-
NORTHEAST INDIANA

CITY           SKY/WX    TMP DP  RH WIND       PRES   REMARKS
AUBURN +       FAIR      27  14  59 SW10G17   30.08R WCI  17
FORT WAYNE     FAIR      26  15  63 SW17      30.10R WCI  13
HUNTINGTON +   FAIR      25  12  57 SW12G18   30.10S WCI  15
KENDALLVILLE + FAIR      24  15  67 SW13      30.05F WCI  13

$$

INZ028-029-035-036-043>045-051>053-190300-
WEST CENTRAL INDIANA

CITY           SKY/WX    TMP DP  RH WIND       PRES   REMARKS
CRAWFORDSVL +  FAIR      22  14  70 MISG        N/A
GREENCASTLE +  FAIR      27  10  50 SW7       30.18S WCI  19
LAFAYETTE      FAIR      25  15  66 SW10      30.13S WCI  15
TERRE HAUTE    FAIR      25  12  58 S13       30.20S WCI  14

$$

INZ030>032-037>040-046>048-054>057-064-065-190300-
CENTRAL INDIANA

CITY           SKY/WX    TMP DP  RH WIND       PRES   REMARKS
COLUMBUS       CLEAR     27   9  46 S15       30.22S WCI  15
FRANKFORT +    FAIR      26  17  66 SW15      30.15R WCI  14
INDIANAPOLIS   FAIR      25  12  58 SW12      30.18R WCI  14
-EAGLE CREEK   FAIR      26  12  55 SW12      30.16S WCI  16
MARION +       FAIR      25  15  64 SW15      30.14R HAZE    WCI  13
MT COMFORT *+  FAIR      25  16  68 SW12      30.17S WCI  14
SHELBYVILLE    FAIR      24  11  57 S12       30.19S WCI  13
ZIONSVILLE +   FAIR      24  12  60 SW16      30.15S WCI  11

$$

INZ033-034-041-042-049-050-058-059-190300-
EAST CENTRAL INDIANA

CITY           SKY/WX    TMP DP  RH WIND       PRES   REMARKS
MUNCIE         FAIR      28  12  51 SW16      30.12S WCI  16
RICHMOND +     FAIR      23  12  63 SW13      30.17R WCI  11

$$

INZ060-061-067>069-081>083-085>088-190300-
SOUTHWEST INDIANA

CITY           SKY/WX    TMP DP  RH WIND       PRES   REMARKS
EVANSVILLE     FAIR      23  13  65 SW12      30.30S WCI  12
HUNTINGBURG +  FAIR      22  13  68 S8        30.29S WCI  12
WASHINGTON +   FAIR      26  10  52 S14G20    30.25S WCI  14

$$

INZ062-063-066-070>080-084-089>092-190300-
SOUTH CENTRAL AND SOUTHEAST INDIANA

CITY           SKY/WX    TMP DP  RH WIND       PRES   REMARKS
BATESVILLE *+    N/A    N/A N/A N/A MISG        N/A
BEDFORD +      FAIR      25  10  54 S7        30.23F WCI  17
BLOOMINGTON    FAIR      26  11  52 SW15      30.20F WCI  14
FRENCH LICK *+ FAIR      27  10  50 S8        30.24F WCI  18
MADISON *+     FAIR      25  14  63 S8        30.26F WCI  16
NORTH VERNON + FAIR      25  10  54 S9        30.23F WCI  15
SEYMOUR +      FAIR      27  10  50 S8        30.24  WCI  18

$$





USA.gov is the U.S. government's official web portal to all federal, state and local government web resources and services.